[[{"header":{"parameterUnit":"m.s-1","parameterCategory":1,"la1":30.2991,"la2":30.254,"lo1":-89.0895,"lo2":-89.0444,"dy":0.0017,"dx":0.0017,"nx":28,"ny":28,"refTime":"2024-07-02T09:00:00:Z","depth":0,"parameterNumber":2,"parameterNumberName":"U-component_of_WINDS"},"data":[0,0,0,0,0,0,0,0,0,0,0,0,0,0,0,0,0,0,0,0,0,0,0,0,0,0,0,0,0,0,0,0,0,0,0,0,0,0,0,0,0,0,0,0,0,0,0,0,0,0,0,0,0,0,0,0,0,0,0.0083,0.0085,0,0.0251,0.0253,0.0255,0.0332,0.0331,0.0331,0.0331,0.0507,0.0512,0.0517,0,0,0,0,0,0,0,0,0,0,0,0,0,-0.0169,-0.0164,0.0083,0.0085,0.0087,0.0251,0.0253,0.0255,0.0332,0.0331,0.0331,0.0331,0.0506,0.0512,0.0517,0,0,0,0,0,0,0,0,0,0,0,0,0,-0.0036,-0.0163,0.0082,0.0144,0.0152,0.025,0.0253,0.0256,0.0332,0.0331,0.0331,0.0331,0.0504,0.0511,0.0518,0.0569,0,0,0.0541,0.0544,0,0,0,0,0,0,0,0,-0.0043,-0.0027,0.0133,0.014,0.0149,0.027,0.0229,0.0361,0.0332,0.0263,0.0331,0.0331,0.0429,0.0442,0.0475,0.0577,0.0584,0.0541,0.0546,0.0549,0.0551,0,0,0,0,0,0,0,-0.0053,-0.0033,0.0149,0.0135,0.0145,0.0165,0.0184,0.0255,0.0346,0.0269,0.0275,0.0294,0.0433,0.0467,0.0479,0.0587,0.0541,0.0547,0.0552,0.0555,0.0741,0.0741,0,0,0,0,0,0,-0.0073,-0.0042,0.0144,0.0154,0.005,0.017,0.0191,0.0231,0.0345,0.0362,0.0294,0.0297,0.0455,0.0471,0.0486,0.0553,0.0549,0.0555,0.056,0.074,0.0741,0.0742,0,0,0,0,0,0,-0.0078,-0.0057,0.0137,0.0058,0.0084,0.0175,0.022,0.0235,0.0269,0.0364,0.0381,0.0312,0.0455,0.0476,0.0548,0.056,0.0559,0.0565,0.074,0.074,0.0741,0.0687,0,0,0,0,0,0,-0.0086,-0.0059,-0.004,0.0058,0.0088,0.0194,0.022,0.0238,0.0281,0.0286,0.0385,0.0401,0.0457,0.0536,0.0555,0.057,0.0571,0.0739,0.074,0.0741,0.0688,0.0686,0.0684,0,0,0,0,0,-0.0095,-0.0062,-0.004,-0.0018,0.0114,0.0195,0.0213,0.0274,0.0282,0.0302,0.0363,0.0398,0.0556,0.0543,0.0564,0.0582,0.0738,0.074,0.0741,0.0689,0.0687,0.0684,0,0,0,0,0,0,-0.016,-0.0048,-0.0022,0.0044,0.0109,0.0208,0.0235,0.027,0.0335,0.0338,0.0413,0.0435,0.05,0.0549,0.0532,0.0638,0.065,0.0656,0.0604,0.0602,0.06,0.0587,0.0577,0,0,0,0,0,-0.0167,-0.0111,-0.0016,0.0033,0.0065,0.0144,0.0182,0.0224,0.0296,0.0324,0.039,0.0459,0.0525,0.0566,0.0631,0.0696,0.0719,0.0719,0.0717,0.0715,0.0719,0.0758,0.0759,0.0746,0.0746,0.0746,0,0,-0.018,-0.0112,-0.0081,0.0022,0.0078,0.0135,0.0167,0.0226,0.027,0.0333,0.0405,0.0456,0.0539,0.0607,0.0641,0.0649,0.0728,0.0716,0.0714,0.072,0.0759,0.076,0.0761,0.0747,0.0746,0.0746,0,0,-0.0174,-0.0118,-0.007,-0.0015,0.0068,0.0121,0.0132,0.0226,0.0262,0.0335,0.0384,0.0438,0.0549,0.0605,0.0649,0.0676,0.0711,0.0696,0.0685,0.0722,0.0723,0.0725,0.0735,0.0738,0.07,0.0699,0.0699,0,-0.0201,-0.0114,-0.005,0.0006,0.0051,0.011,0.016,0.021,0.0311,0.0341,0.035,0.049,0.055,0.0633,0.0639,0.0672,0.0689,0.0685,0.0718,0.072,0.0722,0.0733,0.0737,0.0697,0.0697,0.0697,0.0698,0,-0.0151,-0.0091,-0.0063,0.0032,0.008,0.0133,0.0206,0.0247,0.0285,0.0338,0.0412,0.0486,0.0567,0.059,0.0628,0.0679,0.0682,0.0703,0.0717,0.072,0.0731,0.0736,0.0693,0.0694,0.0695,0.0696,0,0,-0.0182,-0.0052,-0.0043,0.0002,0.0099,0.0147,0.0203,0.0281,0.0315,0.0383,0.0433,0.0525,0.0546,0.0595,0.064,0.0672,0.0691,0.069,0.0693,0.0688,0.0752,0.0736,0.074,0.0714,0.0715,0.0716,0.0746,0,-0.0163,-0.0062,-0.0002,0.0076,0.0132,0.019,0.0239,0.0305,0.0355,0.0412,0.0469,0.0533,0.0554,0.0585,0.0619,0.0681,0.0705,0.068,0.0763,0.0765,0.074,0.0746,0.0729,0.0753,0.0751,0.0751,0.0752,0,-0.0128,-0.0062,0.0021,0.0112,0.0138,0.0181,0.0258,0.0311,0.0387,0.0422,0.0477,0.0522,0.0586,0.0594,0.0683,0.0664,0.0702,0.0738,0.074,0.0751,0.0758,0.0757,0.0762,0.0765,0.076,0.0759,0.0759,0,-0.0158,-0.0049,0.0015,0.0051,0.0159,0.0188,0.0235,0.0311,0.0354,0.0423,0.0452,0.0527,0.0568,0.0626,0.0691,0.0691,0.0774,0.0787,0.0805,0.0804,0.082,0.0818,0.0832,0.0844,0.0843,0.0843,0.0843,0,-0.0143,-0.0095,0.0003,0.0042,0.0099,0.0168,0.0223,0.0274,0.0341,0.0393,0.0448,0.0495,0.0578,0.0637,0.0688,0.0754,0.0772,0.0803,0.0816,0.0799,0.0795,0.0824,0.0825,0.0844,0.0844,0.0844,0.0844,0,-0.0168,-0.0101,-0.0027,0.0069,0.0094,0.0132,0.0215,0.0256,0.031,0.0375,0.0394,0.0479,0.055,0.062,0.0717,0.0752,0.0817,0.0835,0.0791,0.0798,0.0812,0.081,0.0846,0.0854,0.0859,0.0859,0.0859,0,-0.0163,-0.0124,-0.0024,0.0014,0.0059,0.0119,0.0164,0.0235,0.0279,0.0369,0.04,0.0475,0.0539,0.0651,0.0722,0.0796,0.0816,0.0824,0.0828,0.0809,0.0817,0.0814,0.0819,0.0821,0.0821,0.0821,0.082,0,-0.0161,-0.0129,-0.0068,0.0006,0.0058,0.012,0.0184,0.0212,0.0295,0.0343,0.0416,0.0465,0.0563,0.0638,0.072,0.077,0.081,0.0818,0.0827,0.0809,0.0782,0.0797,0.0785,0.0817,0.0818,0.0818,0.0818,0.0818,-0.017,-0.0132,-0.0056,0.0012,0.0067,0.0125,0.0169,0.0228,0.029,0.0374,0.0412,0.0486,0.0563,0.0678,0.0727,0.0787,0.0797,0.0809,0.0812,0.0814,0.081,0.0772,0.0802,0.0803,0.0803,0.0803,0.0803,0,-0.0164,-0.0112,-0.0051,0.0036,0.009,0.0121,0.0194,0.0237,0.03,0.0368,0.043,0.0514,0.0587,0.0664,0.0741,0.0774,0.0795,0.0793,0.0791,0.0802,0.0796,0.0781,0.0775,0.0775,0.0775,0.0775,0.0775,0.0775,-0.0155,-0.009,-0.005,0.0044,0.0097,0.0168,0.0207,0.0262,0.0317,0.0408,0.0468,0.0518,0.059,0.0673,0.0742,0.0763,0.0789,0.0782,0.0808,0.0801,0.0802,0.0804,0.0791,0.0787,0.0787,0.0809,0.0809,0.0809]},{"header":{"parameterUnit":"m.s-1","parameterCategory":1,"la1":30.2991,"la2":30.254,"lo1":-89.0895,"lo2":-89.0444,"dy":0.0017,"dx":0.0017,"nx":28,"ny":28,"refTime":"2024-07-02T09:00:00:Z","depth":0,"parameterNumber":3,"parameterNumberName":"V-component_of_WINDS"},"data":[0,0,0,0,0,0,0,0,0,0,0,0,0,0,0,0,0,0,0,0,0,0,0,0,0,0,0,0,0,0,0,0,0,0,0,0,0,0,0,0,0,0,0,0,0,0,0,0,0,0,0,0,0,0,0,0,0,0,3.3657,3.3657,0,3.3665,3.3665,3.3666,3.3672,3.3672,3.3672,3.3672,3.3677,3.3678,3.3678,0,0,0,0,0,0,0,0,0,0,0,0,0,3.3644,3.3644,3.3657,3.3657,3.3657,3.3665,3.3665,3.3666,3.3672,3.3672,3.3672,3.3672,3.3677,3.3678,3.3678,0,0,0,0,0,0,0,0,0,0,0,0,0,3.365,3.3644,3.3657,3.3661,3.3662,3.3665,3.3665,3.3666,3.3672,3.3672,3.3672,3.3672,3.3677,3.3678,3.3678,3.3676,0,0,3.3678,3.3678,0,0,0,0,0,0,0,0,3.365,3.3651,3.3661,3.3661,3.3662,3.3668,3.3663,3.3669,3.3672,3.3668,3.3672,3.3672,3.3674,3.3674,3.3676,3.3676,3.3677,3.3678,3.3678,3.3678,3.3678,0,0,0,0,0,0,0,3.365,3.3651,3.366,3.3661,3.3661,3.3662,3.3663,3.3664,3.367,3.3668,3.3669,3.367,3.3674,3.3675,3.3676,3.3677,3.3678,3.3678,3.3678,3.3678,3.3678,3.3678,0,0,0,0,0,0,3.3649,3.365,3.366,3.366,3.3656,3.3662,3.3664,3.3666,3.367,3.3671,3.367,3.367,3.3675,3.3676,3.3676,3.3675,3.3678,3.3678,3.3678,3.3678,3.3678,3.3678,0,0,0,0,0,0,3.3649,3.365,3.3659,3.3655,3.3657,3.3663,3.3665,3.3666,3.3667,3.3671,3.3672,3.367,3.3675,3.3676,3.3677,3.3676,3.3678,3.3678,3.3678,3.3678,3.3678,3.3674,0,0,0,0,0,0,3.3648,3.3649,3.3649,3.3655,3.3657,3.3661,3.3665,3.3666,3.3668,3.3668,3.3672,3.3673,3.3675,3.3676,3.3677,3.3676,3.3678,3.3678,3.3678,3.3678,3.3674,3.3674,3.3673,0,0,0,0,0,3.3648,3.3647,3.3649,3.365,3.3657,3.3661,3.3661,3.3666,3.3668,3.3667,3.367,3.3672,3.3676,3.3676,3.3677,3.3676,3.3678,3.3678,3.3678,3.3674,3.3674,3.3673,0,0,0,0,0,0,3.3638,3.3647,3.365,3.3652,3.3656,3.3662,3.3661,3.3665,3.3667,3.3667,3.3672,3.3672,3.3673,3.3674,3.3675,3.3675,3.3677,3.3677,3.3674,3.3674,3.3673,3.3673,3.3678,0,0,0,0,0,3.3637,3.364,3.3647,3.3647,3.365,3.3655,3.3657,3.366,3.3664,3.3665,3.3668,3.367,3.3672,3.3673,3.3675,3.3674,3.3676,3.3674,3.3674,3.3673,3.3673,3.3674,3.3674,3.3677,3.3677,3.3677,0,0,3.3633,3.3638,3.364,3.3646,3.3649,3.3652,3.3656,3.3658,3.366,3.3665,3.3666,3.3669,3.3672,3.3672,3.3673,3.3674,3.3673,3.3673,3.3673,3.3673,3.3674,3.3674,3.3673,3.3677,3.3677,3.3677,0,0,3.3627,3.3632,3.3633,3.3637,3.3643,3.3647,3.3647,3.3654,3.3656,3.3658,3.3662,3.3664,3.3666,3.3669,3.367,3.3668,3.367,3.3668,3.3666,3.3667,3.3667,3.3666,3.3666,3.3666,3.3668,3.3668,3.3668,0,3.3621,3.3626,3.3633,3.3636,3.3638,3.3645,3.3646,3.3649,3.3655,3.3656,3.3658,3.3662,3.3665,3.3667,3.3666,3.3667,3.3668,3.3668,3.3666,3.3666,3.3666,3.3666,3.3666,3.3668,3.3668,3.3668,3.3668,0,3.3619,3.3623,3.3623,3.363,3.3633,3.3635,3.3641,3.3643,3.3647,3.3651,3.3653,3.3657,3.366,3.3661,3.3663,3.3663,3.3664,3.3666,3.3668,3.3665,3.3665,3.3665,3.3668,3.3668,3.3668,3.3668,0,0,3.3606,3.3619,3.3619,3.3624,3.3631,3.3634,3.3636,3.3641,3.3643,3.3647,3.3649,3.3652,3.3654,3.3656,3.3659,3.366,3.3659,3.3662,3.3662,3.3662,3.366,3.3659,3.3659,3.3661,3.3661,3.3661,3.366,0,3.3602,3.3609,3.3615,3.3619,3.3622,3.3629,3.3632,3.3636,3.364,3.3643,3.3647,3.365,3.3653,3.3654,3.3655,3.3659,3.3659,3.3659,3.3662,3.3662,3.3662,3.3658,3.3657,3.3656,3.366,3.366,3.366,0,3.3598,3.3604,3.3608,3.3618,3.3619,3.3621,3.3627,3.363,3.3636,3.3639,3.3642,3.3646,3.3648,3.3651,3.3654,3.3654,3.3656,3.3658,3.3658,3.3659,3.3661,3.3659,3.3655,3.3655,3.366,3.366,3.366,0,3.3589,3.3598,3.3602,3.3605,3.3616,3.3617,3.3622,3.3628,3.3631,3.3635,3.3637,3.3642,3.3644,3.3647,3.3652,3.3653,3.3656,3.3658,3.3658,3.3658,3.3658,3.3658,3.3655,3.3659,3.3659,3.3659,3.3659,0,3.3584,3.3586,3.3599,3.3601,3.3604,3.3612,3.3615,3.362,3.3625,3.3628,3.3634,3.3637,3.3643,3.3647,3.365,3.3653,3.3654,3.3656,3.3657,3.3656,3.3656,3.3657,3.3657,3.3658,3.3659,3.3659,3.3659,0,3.3574,3.3583,3.3588,3.3598,3.3601,3.3603,3.3612,3.3614,3.362,3.3624,3.3625,3.3633,3.3637,3.3643,3.3648,3.3651,3.3653,3.3655,3.3652,3.3653,3.3653,3.3653,3.365,3.3651,3.3654,3.3654,3.3654,0,3.357,3.3573,3.3584,3.3588,3.3593,3.3598,3.3602,3.361,3.3613,3.3621,3.3623,3.3628,3.3633,3.364,3.3645,3.365,3.3651,3.365,3.3652,3.3651,3.3652,3.3652,3.3652,3.365,3.365,3.365,3.365,0,3.3563,3.3567,3.3573,3.3582,3.3587,3.3593,3.3599,3.3601,3.361,3.3614,3.362,3.3624,3.3631,3.3636,3.3642,3.3645,3.3649,3.3649,3.365,3.3648,3.3647,3.3648,3.3651,3.3649,3.3649,3.3649,3.3649,3.3649,3.3556,3.3559,3.3569,3.3576,3.3582,3.3588,3.3592,3.3598,3.3604,3.3611,3.3615,3.3621,3.3628,3.3636,3.364,3.3644,3.3645,3.3646,3.3646,3.3646,3.3646,3.3646,3.3645,3.3645,3.3645,3.3645,3.3645,0,3.3549,3.3556,3.3563,3.3573,3.3578,3.3583,3.3591,3.3595,3.3601,3.3607,3.3613,3.362,3.3625,3.3632,3.3638,3.364,3.3642,3.3641,3.3641,3.3642,3.3644,3.3643,3.364,3.364,3.364,3.364,3.364,3.364,3.3546,3.3552,3.3559,3.3568,3.3575,3.3582,3.3586,3.3592,3.3597,3.3606,3.3611,3.3616,3.3623,3.363,3.3635,3.3637,3.3639,3.3638,3.364,3.3642,3.3642,3.3642,3.3642,3.3638,3.3638,3.3638,3.3638,3.3638]}]]